User: anonymous   Login
Location: Ay?beleni
(36.6500°N, 30.3000°E)
Time: 14:16:19
(UTC+00:00)
Language:

Centaur AC-112 - Orbit

View from above orbital plane
View from above orbital plane
View from above satellite
View from above satellite

Ground track
Ground track

The orbit data is extracted from the following two-line orbital elements,

1 23468U 95003B   22022.98114417  .00005910  00000-0  10027-2 0  9990
2 23468  26.5809 143.7380 6009445 256.6402  33.5194  4.03507975348701
Epoch (UTC): 22 January 2022 23:32:50
Eccentricity: 0.6009445
inclination: 26.5809°
perigee height: 272 km
apogee height: 20303 km
right ascension of ascending node: 143.7380°
argument of perigee: 256.6402°
revolutions per day: 4.03507975
mean anomaly at epoch: 33.5194°
orbit number at epoch: 34870

The dashed part of the orbit path shows where the satellite is in the earth's shadow,  

DLR